Regional Weather Roundup
Issued by NWS

Home | Current Version | Previous Version | Graphics & Text | Print | Product List | Glossary Off
Versions: 1 2 3 4 5 6 7 8 9 10 11 12 13 14 15 16 17 18 19 20 21 22 23 24 25 26 27 28 29 30 31 32 33 34 35 36 37 38 39 40 41 42 43 44 45 46 47 48 49 50

000
ASUS43 KTOP 311559
RWRKS

WEATHER ROUNDUP FOR KANSAS
NATIONAL WEATHER SERVICE GOODLAND KS
1100 AM CDT FRI JUL 31 2015

NOTE:  "FAIR" INDICATES FEW OR NO CLOUDS BELOW 12,000 FEET WITH NO
SIGNIFICANT WEATHER AND/OR OBSTRUCTIONS TO VISIBILITY.

KSZ001>006-013>018-027>032-041>047-311700-
NORTHWEST KANSAS

CITY           SKY/WX    TMP DP  RH WIND       PRES   REMARKS
GOODLAND       MOSUNNY   77  66  68 S12       30.28F
HAYS           SUNNY     82  64  54 W5        30.21F
HILL CITY      MOSUNNY   84  70  62 W3        30.21F
RUSSELL        SUNNY     82  68  62 SW7       30.19F
$$

KSZ061>065-074>080-084>089-311700-
SOUTHWEST KANSAS

CITY           SKY/WX    TMP DP  RH WIND       PRES   REMARKS
DODGE CITY     PTSUNNY   78  67  68 SW7       30.25S
ELKHART          N/A     66  61  84 S6          N/A
GARDEN CITY    PTSUNNY   76  70  82 SW6       30.26S
GREAT BEND     MOSUNNY   81  68  65 SW3       30.20F
LIBERAL        CLOUDY    73  66  78 W7        30.27R
PRATT          PTSUNNY   81  68  65 S5        30.22S
$$

KSZ066>073-081>083-090>101-311700-
SOUTHEAST KANSAS

CITY           SKY/WX    TMP DP  RH WIND       PRES   REMARKS
CHANUTE        SUNNY     84  64  50 VRB3      30.17S
COFFEYVILLE    CLOUDY    84  70  62 S8        30.17R
HUTCHINSON     SUNNY     82  68  62 S3        30.20S
MEDICINE LODGE   N/A     81  72  74 CALM      30.20F
NEWTON         SUNNY     81  64  57 CALM      30.22S
PARSONS        SUNNY     84  72  67 VRB3      30.18S
WICHITA INTL   PTSUNNY   85  67  54 N3        30.18S
WICHITA JABRA  SUNNY     84  67  56 E6        30.18F
WINFIELD       SUNNY     82  69  64 E5        30.18F
$$

KSZ007>012-019>026-033>040-048>060-102>105-311700-
NORTHEAST KANSAS

CITY           SKY/WX    TMP DP  RH WIND       PRES   REMARKS
CONCORDIA      SUNNY     84  67  56 CALM      30.18F
EMPORIA        SUNNY     82  65  56 E5        30.18S
LAWRENCE       SUNNY     82  66  58 SW5       30.16F
MANHATTAN      SUNNY     82  70  66 CALM      30.16F
OLATHE IND     MOSUNNY   83  64  52 S5        30.18F
OLATHE EXE     SUNNY     81  64  56 VRB5      30.17F
SALINA         MOSUNNY   84  70  62 CALM      30.18F
TOPEKA BILLARD SUNNY     82  68  62 E3        30.17S
TOPEKA FORBES  SUNNY     83  65  54 VRB3      30.17F
$$



USA.gov is the U.S. government's official web portal to all federal, state and local government web resources and services.